Home > Weather > Urbana > Past weeks

Flag for USA Past Weather in Urbana, Illinois, USA — Yesterday and Last 2 Weeks

Now
67 °F

Clear.


Feels Like: 67 °F
Forecast: 66 / 85 °F
Wind: No wind

Location: University Of Illinois-Willard Airport

Current Time: May 31, 2016 at 2:56:57 AM

Latest Report: May 31, 2016 at 1:53 AM


Visibility: 10 mi

Pressure: 29.96 "Hg

Humidity: 79%

Dew Point: 60 °F

Location of UrbanaLocation

Past Weather in Urbana — Graph

°F

Urbana Temperature Yesterday

Maximum temperature yesterday: 88 °F (at 12:53 PM)
Minimum temperature yesterday: 61 °F (at 4:53 AM)
Average temperature yesterday: 74 °F

High & Low Weather Summary for the Past Weeks

 TemperatureHumidityPressure
High88 °F (May 30, 12:53 PM)97% (May 20, 10:53 PM)30.24 "Hg (May 20, 10:53 PM)
Low42 °F (May 18, 4:53 AM)21% (May 22, 3:53 PM)29.85 "Hg (May 26, 5:53 PM)
Average67 °F61%30.04 "Hg
* Reported May 16 12:53 AM — May 31 12:53 AM, Urbana, Weather by CustomWeather, © 2016

Note: Actual official high and low records may vary slightly from our data, if they occured in-between our weather recording intervals... More about our weather records

Advertising

Urbana Weather History for the Previous 24 Hours

Scroll right to see more
 ConditionsComfort  
Time TempWeatherWind HumidityBarometerVisibility
12:53 AM
Tue, May 31
67 °FClear.No wind76%29.96 "Hg10 mi
11:53 PM
Mon, May 30
67 °FPassing clouds.5 mph79%29.96 "Hg10 mi
10:53 PM70 °FClear.7 mph68%29.97 "Hg10 mi
9:53 PM71 °FClear.7 mph61%29.97 "Hg10 mi
8:53 PM70 °FScattered clouds.5 mph68%29.96 "Hg10 mi
8:04 PM72 °FThunderstorms. Partly sunny.16 mph59%29.99 "Hg10 mi
7:57 PM72 °FThunderstorms. Overcast.18 mph59%29.99 "Hg1 mi
6:53 PM79 °FThunderstorms. Overcast.6 mph47%29.97 "Hg10 mi
5:53 PM81 °FThundershowers. Overcast.No wind42%29.96 "Hg10 mi
4:53 PM87 °FOvercast.10 mph33%29.96 "Hg10 mi
3:53 PM87 °FPassing clouds.3 mph29%29.97 "Hg10 mi
2:53 PM88 °FSunny.5 mph28%29.99 "Hg10 mi
1:53 PM88 °FPassing clouds.5 mph30%30.01 "Hg10 mi
12:53 PM88 °FPassing clouds.6 mph31%30.03 "Hg10 mi
11:53 AM83 °FScattered clouds.3 mph38%30.04 "Hg10 mi
10:53 AM82 °FSunny.6 mph41%30.04 "Hg10 mi
9:53 AM80 °FSunny.7 mph44%30.06 "Hg10 mi
8:53 AM78 °FSunny.8 mph48%30.08 "Hg10 mi
7:53 AM72 °FSunny.No wind61%30.06 "Hg10 mi
6:53 AM66 °FSunny.No wind78%30.05 "Hg10 mi
5:53 AM62 °FClear.7 mph83%30.04 "Hg10 mi
4:53 AM61 °FClear.6 mph87%30.02 "Hg10 mi
3:53 AM62 °FClear.No wind83%30.03 "Hg10 mi
2:53 AM65 °FClear.No wind76%30.02 "Hg10 mi
Weather by CustomWeather, © 2016

See weather overviewHow to use our weather pages